| time (UTC) | temp F | wind direction | speed MPH | gust MPH | rain 1hr in | rain 24hr in | rain mn in | humidity % | barometer mb |
| 20260503005003 | 54 | 143 | 1.0 | 2.0 | 0.00 | 0.00 | 0.00 | 62 | 1019.3 |
| 20260503004503 | 54 | 127 | 1.0 | 2.0 | 0.00 | 0.00 | 0.00 | 62 | 1019.3 |
| 20260503004003 | 54 | 177 | 1.0 | 2.0 | 0.00 | 0.00 | 0.00 | 62 | 1019.4 |
| 20260503003503 | 54 | 188 | 1.0 | 2.0 | 0.00 | 0.00 | 0.00 | 62 | 1019.1 |
| 20260503003003 | 54 | 171 | 1.0 | 2.0 | 0.00 | 0.00 | 0.00 | 62 | 1019.3 |
| 20260503002503 | 54 | 200 | 2.0 | 4.0 | 0.00 | 0.00 | 0.00 | 62 | 1019.2 |
| 20260503002003 | 54 | 213 | 2.0 | 4.0 | 0.00 | 0.00 | 0.00 | 62 | 1019.5 |
| 20260503001503 | 54 | 210 | 2.0 | 2.0 | 0.00 | 0.00 | 0.00 | 62 | 1019.3 |
| 20260503001003 | 54 | 213 | 2.0 | 4.0 | 0.00 | 0.00 | 0.00 | 62 | 1019.3 |
| 20260503000503 | 54 | 218 | 2.0 | 5.0 | 0.00 | 0.00 | 0.00 | 62 | 1019.4 |
| 20260503000003 | 54 | 218 | 2.0 | 5.0 | 0.00 | 0.00 | 0.00 | 62 | 1019.6 |
| 20260502235503 | 54 | 206 | 2.0 | 4.0 | 0.00 | 0.00 | 0.00 | 62 | 1019.8 |
| 20260502235003 | 54 | 174 | 2.0 | 3.0 | 0.00 | 0.00 | 0.00 | 62 | 1019.7 |
| 20260502234503 | 55 | 161 | 2.0 | 3.0 | 0.00 | 0.00 | 0.00 | 61 | 1019.7 |
| 20260502234003 | 55 | 164 | 2.0 | 3.0 | 0.00 | 0.00 | 0.00 | 61 | 1019.9 |
| 20260502233503 | 55 | 168 | 1.0 | 2.0 | 0.00 | 0.00 | 0.00 | 61 | 1019.8 |
| 20260502233003 | 56 | 179 | 1.0 | 2.0 | 0.00 | 0.00 | 0.00 | 61 | 1019.8 |
| 20260502232503 | 56 | 194 | 2.0 | 3.0 | 0.00 | 0.00 | 0.00 | 60 | 1020.0 |
| 20260502232003 | 56 | 195 | 2.0 | 3.0 | 0.00 | 0.00 | 0.00 | 60 | 1019.9 |
| 20260502231503 | 56 | 200 | 2.0 | 4.0 | 0.00 | 0.00 | 0.00 | 60 | 1019.8 |
| 20260502231003 | 56 | 215 | 2.0 | 4.0 | 0.00 | 0.00 | 0.00 | 60 | 1019.9 |
| 20260502230503 | 56 | 223 | 3.0 | 4.0 | 0.00 | 0.00 | 0.00 | 60 | 1020.0 |
| 20260502230003 | 56 | 223 | 2.0 | 4.0 | 0.00 | 0.00 | 0.00 | 61 | 1019.9 |
| 20260502225503 | 56 | 226 | 1.0 | 3.0 | 0.00 | 0.00 | 0.00 | 61 | 1020.0 |
| 20260502225003 | 56 | 215 | 1.0 | 3.0 | 0.00 | 0.00 | 0.00 | 61 | 1020.0 |
| 20260502224503 | 56 | 189 | 1.0 | 2.0 | 0.00 | 0.00 | 0.00 | 60 | 1020.0 |
| 20260502224003 | 56 | 182 | 2.0 | 3.0 | 0.00 | 0.00 | 0.00 | 60 | 1019.7 |
| 20260502223503 | 56 | 199 | 2.0 | 3.0 | 0.00 | 0.00 | 0.00 | 60 | 1020.0 |
| 20260502223004 | 56 | 199 | 2.0 | 3.0 | 0.00 | 0.00 | 0.00 | 60 | 1020.1 |
| 20260502222503 | 56 | 196 | 2.0 | 3.0 | 0.00 | 0.00 | 0.00 | 59 | 1020.3 |
| 20260502222003 | 56 | 202 | 2.0 | 3.0 | 0.00 | 0.00 | 0.00 | 59 | 1020.2 |
| 20260502221503 | 56 | 200 | 2.0 | 3.0 | 0.00 | 0.00 | 0.00 | 59 | 1020.2 |
| 20260502221003 | 56 | 204 | 2.0 | 3.0 | 0.00 | 0.00 | 0.00 | 60 | 1020.3 |
| 20260502220503 | 56 | 196 | 2.0 | 3.0 | 0.00 | 0.00 | 0.00 | 59 | 1020.1 |
| 20260502220003 | 56 | 193 | 2.0 | 3.0 | 0.00 | 0.00 | 0.00 | 59 | 1020.1 |
| 20260502215503 | 56 | 196 | 1.0 | 3.0 | 0.00 | 0.00 | 0.00 | 59 | 1020.2 |
| 20260502215003 | 57 | 198 | 1.0 | 4.0 | 0.00 | 0.00 | 0.00 | 59 | 1020.2 |
| 20260502214503 | 57 | 213 | 2.0 | 4.0 | 0.00 | 0.00 | 0.00 | 59 | 1020.1 |
| 20260502214003 | 57 | 221 | 2.0 | 4.0 | 0.00 | 0.00 | 0.00 | 60 | 1020.2 |
| 20260502213503 | 57 | 225 | 2.0 | 3.0 | 0.00 | 0.00 | 0.00 | 60 | 1020.1 |
| 20260502213003 | 57 | 209 | 2.0 | 3.0 | 0.00 | 0.00 | 0.00 | 60 | 1020.3 |
| 20260502212503 | 57 | 170 | 2.0 | 3.0 | 0.00 | 0.00 | 0.00 | 59 | 1020.1 |
| 20260502212004 | 57 | 156 | 2.0 | 2.0 | 0.00 | 0.00 | 0.00 | 58 | 1020.2 |
| 20260502211503 | 57 | 159 | 2.0 | 3.0 | 0.00 | 0.00 | 0.00 | 58 | 1020.2 |
| 20260502211003 | 58 | 170 | 2.0 | 3.0 | 0.00 | 0.00 | 0.00 | 57 | 1020.2 |
| 20260502210503 | 58 | 191 | 2.0 | 3.0 | 0.00 | 0.00 | 0.00 | 57 | 1020.2 |
| 20260502210003 | 58 | 217 | 1.0 | 3.0 | 0.00 | 0.00 | 0.00 | 57 | 1020.4 |
| 20260502205503 | 59 | 215 | 1.0 | 3.0 | 0.00 | 0.00 | 0.00 | 57 | 1020.1 |
| 20260502205003 | 59 | 203 | 1.0 | 2.0 | 0.00 | 0.00 | 0.00 | 56 | 1020.2 |
| 20260502204503 | 59 | 222 | 1.0 | 3.0 | 0.00 | 0.00 | 0.00 | 56 | 1020.5 |
| 20260502204003 | 59 | 226 | 2.0 | 3.0 | 0.00 | 0.00 | 0.00 | 56 | 1020.4 |
| 20260502203503 | 59 | 221 | 2.0 | 3.0 | 0.00 | 0.00 | 0.00 | 55 | 1020.5 |
| 20260502203003 | 59 | 223 | 2.0 | 3.0 | 0.00 | 0.00 | 0.00 | 55 | 1020.2 |
| 20260502202503 | 60 | 222 | 1.0 | 2.0 | 0.00 | 0.00 | 0.00 | 54 | 1020.3 |
| 20260502202003 | 60 | 213 | 1.0 | 2.0 | 0.00 | 0.00 | 0.00 | 54 | 1020.6 |
| 20260502201503 | 60 | 211 | 1.0 | 3.0 | 0.00 | 0.00 | 0.00 | 53 | 1020.2 |
| 20260502201003 | 60 | 214 | 1.0 | 3.0 | 0.00 | 0.00 | 0.00 | 52 | 1020.3 |
| 20260502200503 | 61 | 224 | 1.0 | 2.0 | 0.00 | 0.00 | 0.00 | 52 | 1020.3 |
| 20260502200003 | 61 | 247 | 1.0 | 2.0 | 0.00 | 0.00 | 0.00 | 51 | 1020.6 |
| 20260502195503 | 62 | 273 | 1.0 | 2.0 | 0.00 | 0.00 | 0.00 | 51 | 1020.4 |
| 20260502195003 | 62 | 280 | 1.0 | 2.0 | 0.00 | 0.00 | 0.00 | 51 | 1020.2 |
| 20260502194503 | 62 | 243 | 1.0 | 3.0 | 0.00 | 0.00 | 0.00 | 50 | 1020.2 |
| 20260502194003 | 63 | 211 | 1.0 | 4.0 | 0.00 | 0.00 | 0.00 | 49 | 1020.2 |
| 20260502193503 | 63 | 176 | 2.0 | 4.0 | 0.00 | 0.00 | 0.00 | 49 | 1020.3 |
| 20260502193003 | 63 | 162 | 2.0 | 3.0 | 0.00 | 0.00 | 0.00 | 48 | 1020.2 |
| 20260502192503 | 64 | 170 | 2.0 | 3.0 | 0.00 | 0.00 | 0.00 | 47 | 1020.3 |
| 20260502192003 | 64 | 168 | 1.0 | 3.0 | 0.00 | 0.00 | 0.00 | 47 | 1020.1 |
| 20260502191503 | 64 | 160 | 1.0 | 3.0 | 0.00 | 0.00 | 0.00 | 47 | 1020.3 |
| 20260502191003 | 64 | 160 | 2.0 | 3.0 | 0.00 | 0.00 | 0.00 | 46 | 1020.0 |
| 20260502190503 | 65 | 162 | 2.0 | 4.0 | 0.00 | 0.00 | 0.00 | 46 | 1020.1 |
| 20260502190004 | 65 | 161 | 2.0 | 4.0 | 0.00 | 0.00 | 0.00 | 46 | 1020.0 |
| 20260502185503 | 65 | 158 | 2.0 | 3.0 | 0.00 | 0.00 | 0.00 | 45 | 1019.9 |
| 20260502185003 | 66 | 159 | 2.0 | 4.0 | 0.00 | 0.00 | 0.00 | 45 | 1020.1 |
| 20260502184503 | 66 | 161 | 2.0 | 4.0 | 0.00 | 0.00 | 0.00 | 44 | 1020.0 |
| 20260502184003 | 67 | 163 | 2.0 | 3.0 | 0.00 | 0.00 | 0.00 | 43 | 1020.2 |
| 20260502183503 | 68 | 170 | 1.0 | 3.0 | 0.00 | 0.00 | 0.00 | 43 | 1020.0 |
| 20260502183003 | 68 | 178 | 1.0 | 3.0 | 0.00 | 0.00 | 0.00 | 42 | 1020.0 |
| 20260502182503 | 69 | 187 | 2.0 | 4.0 | 0.00 | 0.00 | 0.00 | 41 | 1019.7 |
| 20260502182003 | 69 | 191 | 2.0 | 4.0 | 0.00 | 0.00 | 0.00 | 41 | 1019.9 |
| 20260502181503 | 69 | 191 | 3.0 | 4.0 | 0.00 | 0.00 | 0.00 | 41 | 1020.1 |
| 20260502181003 | 70 | 187 | 3.0 | 4.0 | 0.00 | 0.00 | 0.00 | 40 | 1019.9 |
| 20260502180503 | 70 | 182 | 3.0 | 4.0 | 0.00 | 0.00 | 0.00 | 40 | 1019.9 |
| 20260502170503 | 72 | 222 | 4.0 | 9.0 | 0.00 | 0.00 | 0.00 | 37 | 1019.9 |
| 20260502164003 | 74 | 197 | 3.0 | 10.0 | 0.00 | 0.00 | 0.00 | 35 | 1020.0 |
| 20260502163503 | 74 | 195 | 4.0 | 10.0 | 0.00 | 0.00 | 0.00 | 35 | 1020.0 |
| 20260502163003 | 74 | 190 | 4.0 | 9.0 | 0.00 | 0.00 | 0.00 | 35 | 1020.2 |
| 20260502162503 | 74 | 190 | 3.0 | 8.0 | 0.00 | 0.00 | 0.00 | 35 | 1020.1 |
| 20260502162003 | 74 | 207 | 4.0 | 9.0 | 0.00 | 0.00 | 0.00 | 35 | 1020.1 |
| 20260502161503 | 74 | 220 | 6.0 | 13.0 | 0.00 | 0.00 | 0.00 | 35 | 1020.1 |
| 20260502161003 | 74 | 215 | 5.0 | 13.0 | 0.00 | 0.00 | 0.00 | 35 | 1020.4 |
| 20260502160503 | 74 | 228 | 5.0 | 12.0 | 0.00 | 0.00 | 0.00 | 35 | 1020.4 |
| 20260502152003 | 75 | 219 | 5.0 | 13.0 | 0.00 | 0.00 | 0.00 | 33 | 1020.8 |
| 20260502151503 | 76 | 218 | 5.0 | 11.0 | 0.00 | 0.00 | 0.00 | 34 | 1020.6 |
| 20260502151003 | 76 | 222 | 5.0 | 12.0 | 0.00 | 0.00 | 0.00 | 32 | 1020.7 |
| 20260502150503 | 76 | 210 | 5.0 | 12.0 | 0.00 | 0.00 | 0.00 | 33 | 1021.0 |
| 20260502130503 | 75 | 225 | 7.0 | 15.0 | 0.00 | 0.00 | 0.00 | 33 | 1022.4 |
| 20260502123503 | 75 | 177 | 5.0 | 12.0 | 0.00 | 0.00 | 0.00 | 34 | 1022.9 |
| 20260502123003 | 75 | 184 | 5.0 | 12.0 | 0.00 | 0.00 | 0.00 | 33 | 1022.6 |
| 20260502122503 | 75 | 187 | 5.0 | 13.0 | 0.00 | 0.00 | 0.00 | 33 | 1022.9 |
| 20260502122003 | 75 | 181 | 4.0 | 13.0 | 0.00 | 0.00 | 0.00 | 33 | 1022.9 |
| 20260502121503 | 75 | 195 | 4.0 | 15.0 | 0.00 | 0.00 | 0.00 | 36 | 1023.1 |
| 20260502121003 | 75 | 206 | 6.0 | 15.0 | 0.00 | 0.00 | 0.00 | 33 | 1023.2 |
| 20260502120503 | 75 | 190 | 6.0 | 14.0 | 0.00 | 0.00 | 0.00 | 33 | 1023.1 |
| 20260502115503 | 75 | 188 | 5.0 | 13.0 | 0.00 | 0.00 | 0.00 | 34 | 1023.1 |
| 20260502115003 | 75 | 208 | 5.0 | 13.0 | 0.00 | 0.00 | 0.00 | 34 | 1023.2 |
| 20260502114503 | 75 | 234 | 7.0 | 18.0 | 0.00 | 0.00 | 0.00 | 34 | 1023.3 |
| 20260502114008 | 75 | 228 | 7.0 | 18.0 | 0.00 | 0.00 | 0.00 | 34 | 1023.3 |
| 20260502113503 | 75 | 172 | 6.0 | 12.0 | 0.00 | 0.00 | 0.00 | 34 | 1023.2 |
| 20260502113003 | 74 | 180 | 5.0 | 12.0 | 0.00 | 0.00 | 0.00 | 38 | 1023.5 |
| 20260502112503 | 74 | 225 | 4.0 | 13.0 | 0.00 | 0.00 | 0.00 | 36 | 1023.5 |
| 20260502112003 | 74 | 210 | 5.0 | 14.0 | 0.00 | 0.00 | 0.00 | 35 | 1023.8 |
| 20260502111503 | 74 | 199 | 6.0 | 14.0 | 0.00 | 0.00 | 0.00 | 33 | 1023.6 |
| 20260502111003 | 74 | 213 | 6.0 | 17.0 | 0.00 | 0.00 | 0.00 | 36 | 1023.7 |
| 20260502110503 | 74 | 224 | 6.0 | 17.0 | 0.00 | 0.00 | 0.00 | 34 | 1023.9 |
| 20260502110003 | 74 | 198 | 5.0 | 12.0 | 0.00 | 0.00 | 0.00 | 35 | 1023.7 |
| 20260502105503 | 74 | 176 | 5.0 | 12.0 | 0.00 | 0.00 | 0.00 | 35 | 1024.0 |
| 20260502105003 | 73 | 202 | 5.0 | 17.0 | 0.00 | 0.00 | 0.00 | 36 | 1024.1 |
| 20260502104503 | 74 | 227 | 5.0 | 17.0 | 0.00 | 0.00 | 0.00 | 33 | 1024.0 |
| 20260502103503 | 74 | 217 | 4.0 | 14.0 | 0.00 | 0.00 | 0.00 | 34 | 1024.2 |
| 20260502103003 | 73 | 216 | 4.0 | 13.0 | 0.00 | 0.00 | 0.00 | 35 | 1024.2 |
| 20260502102503 | 72 | 218 | 6.0 | 15.0 | 0.00 | 0.00 | 0.00 | 35 | 1024.5 |
| 20260502102003 | 72 | 215 | 5.0 | 15.0 | 0.00 | 0.00 | 0.00 | 33 | 1024.5 |
| 20260502101504 | 72 | 221 | 4.0 | 7.0 | 0.00 | 0.00 | 0.00 | 34 | 1024.3 |
| 20260502101003 | 72 | 226 | 5.0 | 16.0 | 0.00 | 0.00 | 0.00 | 35 | 1024.6 |
| 20260502100503 | 73 | 233 | 5.0 | 16.0 | 0.00 | 0.00 | 0.00 | 34 | 1024.5 |
| 20260502091503 | 71 | 253 | 2.0 | 5.0 | 0.00 | 0.00 | 0.00 | 42 | 1024.9 |
| 20260502091003 | 70 | 316 | 1.0 | 5.0 | 0.00 | 0.00 | 0.00 | 42 | 1025.1 |
| 20260502090503 | 70 | 275 | 1.0 | 5.0 | 0.00 | 0.00 | 0.00 | 42 | 1025.0 |
| 20260502071503 | 62 | 6 | 4.0 | 8.0 | 0.00 | 0.00 | 0.00 | 50 | 1025.4 |
| 20260502071003 | 62 | 7 | 4.0 | 7.0 | 0.00 | 0.00 | 0.00 | 51 | 1025.5 |
| 20260502070503 | 61 | 12 | 4.0 | 8.0 | 0.00 | 0.00 | 0.00 | 52 | 1025.7 |
| 20260502070003 | 61 | 11 | 5.0 | 8.0 | 0.00 | 0.00 | 0.00 | 53 | 1025.7 |
| 20260502065503 | 60 | 3 | 4.0 | 8.0 | 0.00 | 0.00 | 0.00 | 54 | 1025.7 |
| 20260502065003 | 60 | 2 | 4.0 | 6.0 | 0.00 | 0.00 | 0.00 | 55 | 1025.6 |
| 20260502064503 | 59 | 4 | 4.0 | 7.0 | 0.00 | 0.00 | 0.00 | 55 | 1025.5 |
| 20260502064003 | 59 | 6 | 4.0 | 7.0 | 0.00 | 0.00 | 0.00 | 55 | 1025.4 |
| 20260502063503 | 58 | 9 | 3.0 | 6.0 | 0.00 | 0.00 | 0.00 | 57 | 1025.7 |
| 20260502063003 | 57 | 8 | 3.0 | 6.0 | 0.00 | 0.00 | 0.00 | 59 | 1025.8 |
| 20260502062503 | 57 | 8 | 3.0 | 6.0 | 0.00 | 0.00 | 0.00 | 59 | 1025.7 |
| 20260502062003 | 56 | 5 | 3.0 | 6.0 | 0.00 | 0.00 | 0.00 | 60 | 1025.8 |
| 20260502061503 | 56 | 1 | 3.0 | 6.0 | 0.00 | 0.00 | 0.00 | 60 | 1025.7 |
| 20260502061003 | 55 | 359 | 4.0 | 6.0 | 0.00 | 0.00 | 0.00 | 61 | 1025.9 |
| 20260502060503 | 55 | 357 | 4.0 | 6.0 | 0.00 | 0.00 | 0.00 | 62 | 1025.8 |
| 20260502060003 | 54 | 353 | 3.0 | 6.0 | 0.00 | 0.00 | 0.00 | 63 | 1025.5 |
| 20260502055503 | 53 | 356 | 3.0 | 6.0 | 0.00 | 0.00 | 0.00 | 64 | 1025.7 |
| 20260502055003 | 52 | 1 | 3.0 | 5.0 | 0.00 | 0.00 | 0.00 | 65 | 1025.9 |
| 20260502054503 | 52 | 2 | 3.0 | 5.0 | 0.00 | 0.00 | 0.00 | 66 | 1025.7 |
| 20260502054003 | 51 | 3 | 3.0 | 4.0 | 0.00 | 0.00 | 0.00 | 66 | 1025.7 |
| 20260502053503 | 50 | 8 | 3.0 | 4.0 | 0.00 | 0.00 | 0.00 | 67 | 1025.7 |
| 20260502053003 | 49 | 11 | 2.0 | 4.0 | 0.00 | 0.00 | 0.00 | 68 | 1026.0 |
| 20260502052503 | 49 | 360 | 1.0 | 2.0 | 0.00 | 0.00 | 0.00 | 69 | 1026.1 |
| 20260502052003 | 48 | 5 | 1.0 | 2.0 | 0.00 | 0.00 | 0.00 | 70 | 1025.9 |
| 20260502051503 | 48 | 350 | 1.0 | 3.0 | 0.00 | 0.00 | 0.00 | 70 | 1025.7 |
| 20260502051003 | 47 | 297 | 1.0 | 3.0 | 0.00 | 0.00 | 0.00 | 70 | 1025.7 |
| 20260502050503 | 47 | 289 | 2.0 | 3.0 | 0.00 | 0.00 | 0.00 | 70 | 1025.5 |
| 20260502050003 | 46 | 283 | 2.0 | 3.0 | 0.00 | 0.00 | 0.00 | 71 | 1025.7 |
| 20260502045503 | 46 | 264 | 2.0 | 4.0 | 0.00 | 0.00 | 0.00 | 70 | 1025.8 |
| 20260502045003 | 46 | 254 | 2.0 | 4.0 | 0.00 | 0.00 | 0.00 | 70 | 1025.8 |
| 20260502044504 | 46 | 249 | 2.0 | 4.0 | 0.00 | 0.00 | 0.00 | 70 | 1025.5 |
| 20260502044003 | 45 | 250 | 2.0 | 4.0 | 0.00 | 0.00 | 0.00 | 70 | 1025.5 |
| 20260502043503 | 45 | 256 | 2.0 | 3.0 | 0.00 | 0.00 | 0.00 | 70 | 1025.7 |
| 20260502043003 | 45 | 268 | 1.0 | 3.0 | 0.00 | 0.00 | 0.00 | 70 | 1025.7 |
| 20260502042503 | 45 | 307 | 0.0 | 2.0 | 0.00 | 0.00 | 0.00 | 70 | 1025.7 |
| 20260502042003 | 45 | 288 | 1.0 | 4.0 | 0.00 | 0.00 | 0.00 | 70 | 1025.5 |
| 20260502041503 | 45 | 276 | 2.0 | 4.0 | 0.00 | 0.00 | 0.00 | 70 | 1025.8 |
| 20260502041003 | 45 | 285 | 2.0 | 4.0 | 0.00 | 0.00 | 0.00 | 70 | 1025.7 |
| 20260502040503 | 45 | 288 | 2.0 | 3.0 | 0.00 | 0.00 | 0.00 | 70 | 1025.6 |
| 20260502040003 | 45 | 282 | 2.0 | 4.0 | 0.00 | 0.00 | 0.00 | 69 | 1025.5 |
| 20260502035503 | 45 | 289 | 2.0 | 4.0 | 0.00 | 0.00 | 0.00 | 69 | 1025.6 |
| 20260502035003 | 45 | 301 | 2.0 | 3.0 | 0.00 | 0.00 | 0.00 | 69 | 1025.7 |
| 20260502034503 | 45 | 266 | 2.0 | 4.0 | 0.00 | 0.00 | 0.00 | 69 | 1025.8 |
| 20260502034003 | 45 | 238 | 3.0 | 5.0 | 0.00 | 0.00 | 0.00 | 69 | 1025.7 |
| 20260502033503 | 45 | 225 | 3.0 | 6.0 | 0.00 | 0.00 | 0.00 | 69 | 1025.6 |
| 20260502033003 | 45 | 201 | 2.0 | 6.0 | 0.00 | 0.00 | 0.00 | 69 | 1025.8 |
| 20260502032503 | 45 | 123 | 1.0 | 3.0 | 0.00 | 0.00 | 0.00 | 68 | 1025.9 |
| 20260502032003 | 46 | 68 | 1.0 | 3.0 | 0.00 | 0.00 | 0.00 | 68 | 1025.7 |
| 20260502031503 | 46 | 39 | 1.0 | 3.0 | 0.00 | 0.00 | 0.00 | 68 | 1025.6 |
| 20260502031003 | 46 | 18 | 0.0 | 2.0 | 0.00 | 0.00 | 0.00 | 68 | 1025.6 |
| 20260502030503 | 46 | 270 | 0.0 | 2.0 | 0.00 | 0.00 | 0.00 | 68 | 1025.5 |
| 20260502030003 | 46 | 239 | 1.0 | 3.0 | 0.00 | 0.00 | 0.00 | 68 | 1025.6 |
| 20260502025503 | 46 | 226 | 1.0 | 3.0 | 0.00 | 0.00 | 0.00 | 68 | 1025.7 |
| 20260502025003 | 46 | 213 | 1.0 | 3.0 | 0.00 | 0.00 | 0.00 | 68 | 1025.8 |
| 20260502024503 | 46 | 188 | 1.0 | 3.0 | 0.00 | 0.00 | 0.00 | 68 | 1025.9 |
| 20260502024003 | 46 | 165 | 0.0 | 2.0 | 0.00 | 0.00 | 0.00 | 67 | 1025.8 |
| 20260502023503 | 46 | 173 | 1.0 | 2.0 | 0.00 | 0.00 | 0.00 | 67 | 1025.9 |
| 20260502023003 | 46 | 192 | 1.0 | 2.0 | 0.00 | 0.00 | 0.00 | 67 | 1025.9 |
| 20260502022503 | 47 | 239 | 0.0 | 2.0 | 0.00 | 0.00 | 0.00 | 66 | 1025.9 |
| 20260502022003 | 47 | 236 | 0.0 | 2.0 | 0.00 | 0.00 | 0.00 | 66 | 1025.9 |
| 20260502021503 | 47 | 228 | 0.0 | 2.0 | 0.00 | 0.00 | 0.00 | 66 | 1026.0 |
| 20260502021003 | 47 | 249 | 0.0 | 2.0 | 0.00 | 0.00 | 0.00 | 66 | 1025.6 |
| 20260502020503 | 47 | 270 | 0.0 | 2.0 | 0.00 | 0.00 | 0.00 | 66 | 1025.9 |
| 20260502020003 | 47 | 265 | 1.0 | 2.0 | 0.00 | 0.00 | 0.00 | 65 | 1025.6 |
| 20260502015503 | 47 | 258 | 1.0 | 3.0 | 0.00 | 0.00 | 0.00 | 65 | 1025.6 |
| 20260502015003 | 47 | 256 | 1.0 | 3.0 | 0.00 | 0.00 | 0.00 | 65 | 1025.8 |
| 20260502014503 | 47 | 264 | 1.0 | 3.0 | 0.00 | 0.00 | 0.00 | 65 | 1025.6 |
| 20260502014003 | 47 | 248 | 2.0 | 3.0 | 0.00 | 0.00 | 0.00 | 65 | 1025.7 |
| 20260502013503 | 47 | 244 | 1.0 | 3.0 | 0.00 | 0.00 | 0.00 | 65 | 1025.8 |
| 20260502013003 | 47 | 244 | 1.0 | 2.0 | 0.00 | 0.00 | 0.00 | 65 | 1025.5 |
| 20260502012503 | 47 | 185 | 1.0 | 2.0 | 0.00 | 0.00 | 0.00 | 65 | 1025.6 |
| 20260502012003 | 47 | 179 | 1.0 | 2.0 | 0.00 | 0.00 | 0.00 | 64 | 1025.7 |
| 20260502011503 | 47 | 195 | 1.0 | 2.0 | 0.00 | 0.00 | 0.00 | 64 | 1025.7 |
| 20260502011003 | 47 | 179 | 1.0 | 2.0 | 0.00 | 0.00 | 0.00 | 64 | 1025.9 |
| 20260502010503 | 48 | 138 | 1.0 | 2.0 | 0.00 | 0.00 | 0.00 | 63 | 1025.7 |
| 20260502010003 | 48 | 134 | 1.0 | 2.0 | 0.00 | 0.00 | 0.00 | 63 | 1025.7 |
| 20260502005503 | 48 | 148 | 1.0 | 2.0 | 0.00 | 0.00 | 0.00 | 62 | 1025.7 |